Regional Weather Roundup
Issued by NWS

Home | Current Version | Previous Version | Graphics & Text | Print | Product List | Glossary Off
Versions: 1 2 3 4 5 6 7 8 9 10 11 12 13 14 15 16 17 18 19 20 21 22 23 24 25 26 27 28 29 30 31 32 33 34 35 36 37 38 39 40 41 42 43 44 45 46 47 48 49 50

000
ASUS43 KTOP 262259
RWRKS

WEATHER ROUNDUP FOR KANSAS
NATIONAL WEATHER SERVICE GOODLAND KS
600 PM CDT FRI MAY 26 2017

NOTE:  "FAIR" INDICATES FEW OR NO CLOUDS BELOW 12,000 FEET WITH NO
SIGNIFICANT WEATHER AND/OR OBSTRUCTIONS TO VISIBILITY.

KSZ001>006-013>018-027>032-041>047-270000-
NORTHWEST KANSAS

CITY           SKY/WX    TMP DP  RH WIND       PRES   REMARKS
GOODLAND       SUNNY     73  52  47 SE15G23   29.86F
HAYS           SUNNY     78  56  46 E8        29.83F
HILL CITY      SUNNY     79  52  38 SE8       29.85S
RUSSELL        SUNNY     78  58  49 E9        29.81F
$$

KSZ061>065-074>080-084>089-270000-
SOUTHWEST KANSAS

CITY           SKY/WX    TMP DP  RH WIND       PRES   REMARKS
DODGE CITY     SUNNY     79  56  45 E6        29.85S
ELKHART          N/A     80  48  32 SE18        N/A
GARDEN CITY    SUNNY     80  52  37 E14       29.85S
GREAT BEND     SUNNY     80  56  43 VRB5      29.82F
LIBERAL        SUNNY     82  55  39 SE7       29.84F HAZE
$$

KSZ066>073-081>083-090>101-270000-
SOUTHEAST KANSAS

CITY           SKY/WX    TMP DP  RH WIND       PRES   REMARKS
CHANUTE        SUNNY     85  64  49 NE5       29.77R
COFFEYVILLE    MOSUNNY   83  69  62 N5        29.75S
HUTCHINSON     SUNNY     84  61  45 NE6       29.80S
MEDICINE LODGE   N/A     85  59  41 NE9       29.78F
NEWTON         SUNNY     82  63  52 NE7       29.81S
PARSONS        MOSUNNY   86  65  49 CALM      29.77S
WICHITA INTL   MOSUNNY   86  62  44 NE9       29.78S
WICHITA JABRA  MOSUNNY   84  62  47 NE8       29.79R
WINFIELD       MOSUNNY   86  59  39 NE8       29.78S
$$

KSZ007>012-019>026-033>040-048>060-102>105-270000-
NORTHEAST KANSAS

CITY           SKY/WX    TMP DP  RH WIND       PRES   REMARKS
CONCORDIA      SUNNY     81  54  39 N5        29.82S
EMPORIA        MOSUNNY   83  64  52 N5        29.78R
LAWRENCE       SUNNY     85  64  49 NW6       29.76S
MANHATTAN      SUNNY     84  61  45 NE7       29.78S
OLATHE IND     MOSUNNY   83  64  52 NW8       29.78S
OLATHE EXE     SUNNY     82  63  52 NW3       29.77S
SALINA         SUNNY     84  60  44 N7        29.80S
TOPEKA BILLARD SUNNY     83  65  54 N5        29.77R
TOPEKA FORBES  MOSUNNY   86  63  45 VRB6      29.78R
$$




USA.gov is the U.S. government's official web portal to all federal, state and local government web resources and services.